Sanford, FL

11:31 AM EDT on July 28, 2017 (GMT -0400)
Orlando Sanford

Weather History for KSFB - October, 2012

Change the Weather History Date:

Monday, October 1, 2012

  Actual Average Record
Temperature  
Mean Temperature 82 °F -  
Max Temperature 91 °F 86 °F 94 °F (1958)
Min Temperature 75 °F 68 °F 61 °F (1970)
Cooling Degree Days 18    
Growing Degree Days 32 (Base 50)    
Moisture  
Dew Point 73 °F    
Average Humidity 83    
Maximum Humidity 94    
Minimum Humidity 52    
Precipitation  
Precipitation 0.52 in - - ()
Sea Level Pressure  
Sea Level Pressure 29.79 in    
Wind  
Wind Speed 7 mph (SSE)    
Max Wind Speed 15 mph    
Max Gust Speed -    
Visibility 8 miles    
Events Fog , Rain , Thunderstorm    
Averages and records for this station are not official NWS values.
T = Trace of Precipitation, MM = Missing Value Source: NWS Daily Summary

Daily Weather History Graph

Daily Weather History Graph

Search for Another Location

Airport or City:

Trip Planner

Search our weather history database for the weather conditions in past years. The results will help you decide how hot, cold, wet, or windy it might be!

Date:

Astronomy

Oct. 01, 2012 Rise Set
Actual Time 7:18 AM EDT 7:10 PM EDT
Civil Twilight 6:54 AM EDT 7:33 PM EDT
Nautical Twilight 6:27 AM EDT 8:01 PM EDT
Astronomical Twilight 5:59 AM EDT 8:28 PM EDT
Moon 7:59 PM EDT (10/1) 8:34 AM EDT (10/1)
Length of Visible Light 12h 39m
Length of Day
11h 51m
Full, 98% of the Moon is Illuminated
Oct 1
Full
Oct 8
Last Quarter
Oct 15
New
Oct 21
First Quarter
Oct 29
Full

Hourly Weather History & Observations

Time (EDT) Temp. Heat Index Dew Point Humidity Pressure Visibility Wind Dir Wind Speed Gust Speed Precip Events Conditions
1:21 AM 78.8 °F - 73.4 °F 83% 29.83 in 10.0 mi South 4.6 mph - 0.00 in   Overcast
1:53 AM 77.0 °F - 73.0 °F 88% 29.83 in 10.0 mi SSW 4.6 mph - 0.00 in   Mostly Cloudy
2:53 AM 75.9 °F - 72.0 °F 87% 29.79 in 10.0 mi SSE 3.5 mph - 0.00 in   Overcast
3:53 AM 75.0 °F - 72.0 °F 90% 29.78 in 10.0 mi SE 3.5 mph - N/A   Clear
4:53 AM 75.0 °F - 72.0 °F 90% 29.79 in 10.0 mi SSE 3.5 mph - N/A   Clear
5:53 AM 75.9 °F - 73.0 °F 91% 29.79 in 10.0 mi South 6.9 mph - N/A   Clear
6:53 AM 75.9 °F - 73.0 °F 91% 29.80 in 10.0 mi South 5.8 mph - N/A   Clear
7:53 AM 75.9 °F - 73.0 °F 91% 29.81 in 10.0 mi SSE 4.6 mph - N/A   Partly Cloudy
9:53 AM 82.0 °F 87.4 °F 73.0 °F 74% 29.82 in 10.0 mi South 8.1 mph - N/A   Clear
10:53 AM 84.9 °F 91.4 °F 73.0 °F 67% 29.82 in 10.0 mi SSE 11.5 mph - N/A   Clear
11:53 AM 88.0 °F 93.8 °F 71.1 °F 57% 29.81 in 10.0 mi South 15.0 mph - N/A   Partly Cloudy
12:53 PM 89.1 °F 94.1 °F 70.0 °F 53% 29.80 in 10.0 mi South 9.2 mph - N/A   Scattered Clouds
2:53 PM 89.1 °F 95.0 °F 71.1 °F 55% 29.74 in 10.0 mi South 9.2 mph - 0.00 in   Mostly Cloudy
3:53 PM 90.0 °F 95.4 °F 70.0 °F 52% 29.73 in 10.0 mi SSE 10.4 mph - N/A   Clear
4:40 PM 80.6 °F 83.9 °F 69.8 °F 70% 29.75 in 1.5 mi SW 5.8 mph - 0.07 in Rain Light Rain
4:46 PM 77.0 °F - 71.6 °F 83% 29.76 in 0.5 mi SSW 3.5 mph - 0.25 in Rain Heavy Rain
4:53 PM 77.0 °F - 73.0 °F 88% 29.75 in 0.2 mi SE 9.2 mph - 0.46 in Fog , Rain Heavy Rain
5:00 PM 75.2 °F - 73.4 °F 94% 29.77 in 0.8 mi SSE 13.8 mph - 0.10 in Rain , Thunderstorm Heavy Thunderstorms and Rain
5:15 PM 75.2 °F - 73.4 °F 94% 29.77 in 0.5 mi SE 4.6 mph - 0.47 in Rain , Thunderstorm Heavy Thunderstorms and Rain
5:27 PM 75.2 °F - 73.4 °F 94% 29.76 in 1.0 mi SSE 11.5 mph - 0.58 in Rain , Thunderstorm Heavy Thunderstorms and Rain
5:30 PM 75.2 °F - 73.4 °F 94% 29.76 in 2.0 mi SSE 10.4 mph - 0.58 in Rain , Thunderstorm Thunderstorms and Rain
5:35 PM 77.0 °F - 73.4 °F 89% 29.76 in 4.0 mi SE 10.4 mph - 0.58 in Rain , Thunderstorm Light Thunderstorms and Rain
6:53 PM 79.0 °F - 75.0 °F 88% 29.76 in 10.0 mi SE 5.8 mph - N/A   Clear
7:53 PM 77.0 °F - 73.9 °F 90% 29.77 in 10.0 mi SSE 6.9 mph - N/A   Partly Cloudy
8:53 PM 77.0 °F - 75.0 °F 94% 29.80 in 10.0 mi SSE 5.8 mph - N/A   Scattered Clouds
9:53 PM 77.0 °F - 73.0 °F 88% 29.81 in 8.0 mi SSE 8.1 mph - 0.05 in Rain Light Rain
10:06 PM 75.2 °F - 71.6 °F 89% 29.82 in 7.0 mi SSE 9.2 mph - 0.01 in Rain , Thunderstorm Light Thunderstorms and Rain
10:24 PM 75.2 °F - 71.6 °F 89% 29.81 in 10.0 mi South 6.9 mph - 0.01 in   Mostly Cloudy
10:53 PM 75.9 °F - 72.0 °F 87% 29.82 in 10.0 mi SSE 6.9 mph - 0.01 in   Clear
11:53 PM 77.0 °F - 73.0 °F 88% 29.82 in 10.0 mi SSE 5.8 mph - N/A   Clear